Year,Month,Day,Hour,Minute,Value (Times are PST for temperature in C)
2014,12,09,00,00,11.20
2014,12,09,00,01,11.20
2014,12,09,00,02,11.20
2014,12,09,00,03,11.20
2014,12,09,00,04,11.20
2014,12,09,00,05,11.20
2014,12,09,00,06,11.20
2014,12,09,00,07,11.20
2014,12,09,00,08,11.20
2014,12,09,00,09,11.20
2014,12,09,00,10,11.20
2014,12,09,00,11,11.20
2014,12,09,00,12,11.10
2014,12,09,00,13,11.10
2014,12,09,00,14,11.20
2014,12,09,00,15,11.20
2014,12,09,00,16,11.20
2014,12,09,00,17,11.20
2014,12,09,00,18,11.20
2014,12,09,00,19,11.20
2014,12,09,00,20,11.20
2014,12,09,00,21,11.10
2014,12,09,00,22,11.10
2014,12,09,00,23,11.10
2014,12,09,00,24,11.10
2014,12,09,00,25,11.10
2014,12,09,00,26,11.20
2014,12,09,00,27,11.20
2014,12,09,00,28,11.20
2014,12,09,00,29,11.20
2014,12,09,00,30,11.20
2014,12,09,00,31,11.20
2014,12,09,00,32,11.20
2014,12,09,00,33,11.20
2014,12,09,00,34,11.20
2014,12,09,00,35,11.20
2014,12,09,00,36,11.20
2014,12,09,00,37,11.20
2014,12,09,00,38,11.20
2014,12,09,00,39,11.20
2014,12,09,00,40,11.20
2014,12,09,00,41,11.20
2014,12,09,00,42,11.20
2014,12,09,00,43,11.20
2014,12,09,00,44,11.20
2014,12,09,00,45,11.20
2014,12,09,00,46,11.30
2014,12,09,00,47,11.30
2014,12,09,00,48,11.30
2014,12,09,00,49,11.30
2014,12,09,00,50,11.30
2014,12,09,00,51,11.30
2014,12,09,00,52,11.30
2014,12,09,00,53,11.30
2014,12,09,00,54,11.30
2014,12,09,00,55,11.30
2014,12,09,00,56,11.30
2014,12,09,00,57,11.30
2014,12,09,00,58,11.30
2014,12,09,00,59,11.30
2014,12,09,01,00,11.20
2014,12,09,01,01,11.30
2014,12,09,01,02,11.30
2014,12,09,01,03,11.30
2014,12,09,01,04,11.30
2014,12,09,01,05,11.30
2014,12,09,01,06,11.20
2014,12,09,01,07,11.30
2014,12,09,01,08,11.30
2014,12,09,01,09,11.20
2014,12,09,01,10,11.20
2014,12,09,01,11,11.30
2014,12,09,01,12,11.30
2014,12,09,01,13,11.30
2014,12,09,01,14,11.30
2014,12,09,01,15,11.30
2014,12,09,01,16,11.30
2014,12,09,01,17,11.30
2014,12,09,01,18,11.30
2014,12,09,01,19,11.30
2014,12,09,01,20,11.30
2014,12,09,01,21,11.30
2014,12,09,01,22,11.30
2014,12,09,01,23,11.30
2014,12,09,01,24,11.30
2014,12,09,01,25,11.30
2014,12,09,01,26,11.30
2014,12,09,01,27,11.40
2014,12,09,01,28,11.40
2014,12,09,01,29,11.40
2014,12,09,01,30,11.40
2014,12,09,01,31,11.40
2014,12,09,01,32,11.40
2014,12,09,01,33,11.40
2014,12,09,01,34,11.40
2014,12,09,04,05,11.40
2014,12,09,04,06,11.40
2014,12,09,04,07,11.40
2014,12,09,04,08,11.40
2014,12,09,04,09,11.40
2014,12,09,04,10,11.40
2014,12,09,04,11,11.40
2014,12,09,04,12,11.40
2014,12,09,04,13,11.40
2014,12,09,04,14,11.40
2014,12,09,04,15,11.40
2014,12,09,04,16,11.40
2014,12,09,04,17,11.50
2014,12,09,04,18,11.50
2014,12,09,04,19,11.50
2014,12,09,04,20,11.50
2014,12,09,04,21,11.50
2014,12,09,04,22,11.50
2014,12,09,04,23,11.40
2014,12,09,04,24,11.40
2014,12,09,04,25,11.40
2014,12,09,04,26,11.40
2014,12,09,04,27,11.50
2014,12,09,04,28,11.50
2014,12,09,04,29,11.50
2014,12,09,04,30,11.50
2014,12,09,04,31,11.50
2014,12,09,04,32,11.50
2014,12,09,04,33,11.60
2014,12,09,04,34,11.60
2014,12,09,04,35,11.60
2014,12,09,04,36,11.60
2014,12,09,04,37,11.60
2014,12,09,04,38,11.60
2014,12,09,04,39,11.60
2014,12,09,04,40,11.60
2014,12,09,04,41,11.60
2014,12,09,04,42,11.60
2014,12,09,04,43,11.60
2014,12,09,04,44,11.60
2014,12,09,04,45,11.60
2014,12,09,04,46,11.60
2014,12,09,04,47,11.60
2014,12,09,04,48,11.60
2014,12,09,04,49,11.60
2014,12,09,04,50,11.60
2014,12,09,04,51,11.60
2014,12,09,04,52,11.60
2014,12,09,04,53,11.60
2014,12,09,04,54,11.60
2014,12,09,04,55,11.60
2014,12,09,04,56,11.60
2014,12,09,04,57,11.60
2014,12,09,04,58,11.60
2014,12,09,04,59,11.60
2014,12,09,05,00,11.60
2014,12,09,05,01,11.60
2014,12,09,05,02,11.60
2014,12,09,05,03,11.60
2014,12,09,05,04,11.60
2014,12,09,05,05,11.60
2014,12,09,05,06,11.60
2014,12,09,05,07,11.60
2014,12,09,05,08,11.60
2014,12,09,05,09,11.60
2014,12,09,05,10,11.60
2014,12,09,05,11,11.60
2014,12,09,05,12,11.60
2014,12,09,05,13,11.60
2014,12,09,05,14,11.60
2014,12,09,05,15,11.60
2014,12,09,05,16,11.60
2014,12,09,05,17,11.60
2014,12,09,05,18,11.60
2014,12,09,05,19,11.60
2014,12,09,05,20,11.60
2014,12,09,05,21,11.60
2014,12,09,05,22,11.60
2014,12,09,05,23,11.60
2014,12,09,05,24,11.60
2014,12,09,05,25,11.60
2014,12,09,05,26,11.60
2014,12,09,05,27,11.60
2014,12,09,05,28,11.70
2014,12,09,05,29,11.70
2014,12,09,05,30,11.70
2014,12,09,05,31,11.70
2014,12,09,05,32,11.70
2014,12,09,05,33,11.70
2014,12,09,05,34,11.70
2014,12,09,05,35,11.70
2014,12,09,05,36,11.70
2014,12,09,05,37,11.70
2014,12,09,05,38,11.70
2014,12,09,05,39,11.70
2014,12,09,05,40,11.70
2014,12,09,05,41,11.70
2014,12,09,05,42,11.70
2014,12,09,05,43,11.70
2014,12,09,05,44,11.70
2014,12,09,05,45,11.70
2014,12,09,05,46,11.70
2014,12,09,05,47,11.70
2014,12,09,05,48,11.70
2014,12,09,05,49,11.70
2014,12,09,05,50,11.70
2014,12,09,05,51,11.70
2014,12,09,05,52,11.70
2014,12,09,05,53,11.70
2014,12,09,05,54,11.80
2014,12,09,05,55,11.70
2014,12,09,05,56,11.70
2014,12,09,05,57,11.70
2014,12,09,05,58,11.80
2014,12,09,05,59,11.80
2014,12,09,06,00,11.80
2014,12,09,06,01,11.80
2014,12,09,06,02,11.80
2014,12,09,06,03,11.80
2014,12,09,06,04,11.80
2014,12,09,06,05,11.80
2014,12,09,06,06,11.80
2014,12,09,06,07,11.80
2014,12,09,06,08,11.80
2014,12,09,06,09,11.90
2014,12,09,06,10,11.90
2014,12,09,06,11,11.90
2014,12,09,06,12,11.90
2014,12,09,06,13,11.90
2014,12,09,06,14,11.90
2014,12,09,06,15,11.90
2014,12,09,06,16,11.90
2014,12,09,06,17,11.90
2014,12,09,06,18,11.90
2014,12,09,06,19,11.90
2014,12,09,06,20,11.90
2014,12,09,06,21,11.90
2014,12,09,06,22,11.90
2014,12,09,06,23,11.90
2014,12,09,06,24,11.90
2014,12,09,06,25,11.90
2014,12,09,06,26,11.90
2014,12,09,06,27,11.90
2014,12,09,06,28,11.90
2014,12,09,06,29,11.90
2014,12,09,06,30,11.90
2014,12,09,06,31,11.90
2014,12,09,06,32,11.90
2014,12,09,06,33,11.90
2014,12,09,06,34,11.90
2014,12,09,06,35,11.90
2014,12,09,06,36,11.90
2014,12,09,06,37,11.90
2014,12,09,06,38,11.90
2014,12,09,06,39,11.90
2014,12,09,06,40,11.90
2014,12,09,06,41,11.90
2014,12,09,06,42,11.90
2014,12,09,06,43,11.90
2014,12,09,06,44,11.90
2014,12,09,06,45,11.90
2014,12,09,06,46,11.90
2014,12,09,06,47,11.90
2014,12,09,06,48,11.90
2014,12,09,06,49,11.90
2014,12,09,06,50,11.90
2014,12,09,06,51,11.90
2014,12,09,06,52,11.90
2014,12,09,06,53,11.90
2014,12,09,06,54,11.90
2014,12,09,06,55,11.90
2014,12,09,06,56,11.90
2014,12,09,06,57,11.90
2014,12,09,06,58,11.90
2014,12,09,06,59,11.90
2014,12,09,07,00,11.90
2014,12,09,07,01,12.00
2014,12,09,07,02,12.00
2014,12,09,07,03,12.00
2014,12,09,07,04,12.00
2014,12,09,07,05,12.00
2014,12,09,07,06,12.00
2014,12,09,07,07,12.00
2014,12,09,07,08,12.00
2014,12,09,07,09,12.00
2014,12,09,07,10,12.00
2014,12,09,07,11,12.00
2014,12,09,07,12,12.00
2014,12,09,07,13,12.00
2014,12,09,07,14,12.10
2014,12,09,07,15,12.10
2014,12,09,07,16,12.10
2014,12,09,07,17,12.10
2014,12,09,07,18,12.10
2014,12,09,07,19,12.20
2014,12,09,07,20,12.20
2014,12,09,07,21,12.20
2014,12,09,07,22,12.20
2014,12,09,07,23,12.20
2014,12,09,07,24,12.20
2014,12,09,07,25,12.20
2014,12,09,07,26,12.20
2014,12,09,07,27,12.20
2014,12,09,07,28,12.20
2014,12,09,07,29,12.20
2014,12,09,07,30,12.20
2014,12,09,07,31,12.20
2014,12,09,07,32,12.20
2014,12,09,07,33,12.20
2014,12,09,07,34,12.20
2014,12,09,07,35,12.20
2014,12,09,07,36,12.20
2014,12,09,07,37,12.20
2014,12,09,07,38,12.20
2014,12,09,07,39,12.20
2014,12,09,07,40,12.30
2014,12,09,07,41,12.30
2014,12,09,07,42,12.30
2014,12,09,07,43,12.30
2014,12,09,07,44,12.30
2014,12,09,07,45,12.30
2014,12,09,07,46,12.30
2014,12,09,07,47,12.30
2014,12,09,07,48,12.30
2014,12,09,07,49,12.30
2014,12,09,07,50,12.30
2014,12,09,07,51,12.30
2014,12,09,07,52,12.30
2014,12,09,07,53,12.30
2014,12,09,07,54,12.30
2014,12,09,07,55,12.30
2014,12,09,07,56,12.30
2014,12,09,07,57,12.30
2014,12,09,07,58,12.30
2014,12,09,07,59,12.30
2014,12,09,08,00,12.30
2014,12,09,08,01,12.30
2014,12,09,08,02,12.30
2014,12,09,08,03,12.30
2014,12,09,08,04,12.20
2014,12,09,08,05,12.20
2014,12,09,08,06,12.20
2014,12,09,08,07,12.20
2014,12,09,08,08,12.20
2014,12,09,08,09,12.20
2014,12,09,08,10,12.10
2014,12,09,08,11,12.10
2014,12,09,08,12,12.10
2014,12,09,08,13,12.10
2014,12,09,08,14,12.10
2014,12,09,08,15,12.10
2014,12,09,08,16,12.10
2014,12,09,08,17,12.10
2014,12,09,08,18,12.10
2014,12,09,08,19,12.10
2014,12,09,08,20,12.10
2014,12,09,08,21,12.10
2014,12,09,08,22,12.20
2014,12,09,08,23,12.20
2014,12,09,08,24,12.20
2014,12,09,08,25,12.20
2014,12,09,08,26,12.20
2014,12,09,08,27,12.10
2014,12,09,08,28,12.20
2014,12,09,08,29,12.20
2014,12,09,08,30,12.20
2014,12,09,08,31,12.20
2014,12,09,08,32,12.20
2014,12,09,08,33,12.20
2014,12,09,08,34,12.20
2014,12,09,08,35,12.20
2014,12,09,08,36,12.20
2014,12,09,08,37,12.20
2014,12,09,08,38,12.20
2014,12,09,08,39,12.20
2014,12,09,08,40,12.20
2014,12,09,08,41,12.20
2014,12,09,08,42,12.20
2014,12,09,08,43,12.20
2014,12,09,08,44,12.20
2014,12,09,08,45,12.20
2014,12,09,08,46,12.10
2014,12,09,08,47,12.10
2014,12,09,08,48,12.10
2014,12,09,08,49,12.10
2014,12,09,08,50,12.10
2014,12,09,08,51,12.10
2014,12,09,08,52,12.10
2014,12,09,08,53,12.10
2014,12,09,08,54,12.00
2014,12,09,08,55,12.00
2014,12,09,08,56,12.00
2014,12,09,08,57,12.00
2014,12,09,08,58,12.00
2014,12,09,08,59,12.00
2014,12,09,09,00,12.10
2014,12,09,09,01,12.10
2014,12,09,09,02,12.00
2014,12,09,09,03,12.00
2014,12,09,09,04,12.00
2014,12,09,09,05,12.00
2014,12,09,09,06,12.00
2014,12,09,09,07,11.90
2014,12,09,09,08,11.90
2014,12,09,09,09,11.90
2014,12,09,09,10,11.90
2014,12,09,09,11,11.90
2014,12,09,09,12,12.00
2014,12,09,09,13,12.00
2014,12,09,09,14,12.00
2014,12,09,09,15,12.00
2014,12,09,09,16,12.00
2014,12,09,09,17,12.00
2014,12,09,09,18,12.00
2014,12,09,09,19,12.10
2014,12,09,09,20,12.10
2014,12,09,09,21,12.10
2014,12,09,09,22,12.10
2014,12,09,09,23,12.10
2014,12,09,09,24,12.10
2014,12,09,09,25,12.10
2014,12,09,09,26,12.10
2014,12,09,09,27,12.10
2014,12,09,09,28,12.10
2014,12,09,09,29,12.10
2014,12,09,09,30,12.10
2014,12,09,09,31,12.10
2014,12,09,09,32,12.20
2014,12,09,09,33,12.10
2014,12,09,09,34,12.20
2014,12,09,09,35,12.20
2014,12,09,09,36,12.20
2014,12,09,09,37,12.20
2014,12,09,09,38,12.20
2014,12,09,09,39,12.20
2014,12,09,09,40,12.20
2014,12,09,09,41,12.20
2014,12,09,09,42,12.20
2014,12,09,09,43,12.20
2014,12,09,09,44,12.20
2014,12,09,09,45,12.20
2014,12,09,09,46,12.20
2014,12,09,09,47,12.20
2014,12,09,09,48,12.20
2014,12,09,09,49,12.20
2014,12,09,09,50,12.20
2014,12,09,09,51,12.20
2014,12,09,09,52,12.20
2014,12,09,09,53,12.20
2014,12,09,09,54,12.20
2014,12,09,09,55,12.20
2014,12,09,09,56,12.20
2014,12,09,09,57,12.20
2014,12,09,09,58,12.10
2014,12,09,09,59,12.20
2014,12,09,10,00,12.10
2014,12,09,10,01,12.10
2014,12,09,10,02,12.10
2014,12,09,10,03,12.10
2014,12,09,10,04,12.10
2014,12,09,10,05,12.10
2014,12,09,10,06,12.10
2014,12,09,10,07,12.10
2014,12,09,10,08,12.10
2014,12,09,10,09,12.10
2014,12,09,10,10,12.10
2014,12,09,10,11,12.10
2014,12,09,10,12,12.10
2014,12,09,10,13,12.10
2014,12,09,10,14,12.10
2014,12,09,10,15,12.20
2014,12,09,10,16,12.20
2014,12,09,10,17,12.20
2014,12,09,10,18,12.20
2014,12,09,10,19,12.20
2014,12,09,10,20,12.30
2014,12,09,10,21,12.40
2014,12,09,10,22,12.50
2014,12,09,10,23,12.60
2014,12,09,10,24,12.60
2014,12,09,10,25,12.70
2014,12,09,10,26,12.70
2014,12,09,10,27,12.80
2014,12,09,10,28,12.80
2014,12,09,10,29,12.90
2014,12,09,10,30,13.00
2014,12,09,10,31,13.10
2014,12,09,10,32,13.20
2014,12,09,10,33,13.30
2014,12,09,10,34,13.30
2014,12,09,10,35,13.40
2014,12,09,10,36,13.40
2014,12,09,10,37,13.40
2014,12,09,10,38,13.40
2014,12,09,10,39,13.50
2014,12,09,10,40,13.50
2014,12,09,10,41,13.50
2014,12,09,10,42,13.40
2014,12,09,10,43,13.40
2014,12,09,10,44,13.40
2014,12,09,10,45,13.40
2014,12,09,10,46,13.40
2014,12,09,10,47,13.30
2014,12,09,10,48,13.30
2014,12,09,10,49,13.20
2014,12,09,10,50,13.20
2014,12,09,10,51,13.20
2014,12,09,10,52,13.20
2014,12,09,10,53,13.20
2014,12,09,10,54,13.20
2014,12,09,10,55,13.20
2014,12,09,10,56,13.20
2014,12,09,10,57,13.20
2014,12,09,10,58,13.20
2014,12,09,10,59,13.20
2014,12,09,11,00,13.20
2014,12,09,11,01,13.20
2014,12,09,11,02,13.30
2014,12,09,11,03,13.30
2014,12,09,11,04,13.30
2014,12,09,11,05,13.30
2014,12,09,11,06,13.30
2014,12,09,11,07,13.40
2014,12,09,11,08,13.40
2014,12,09,11,09,13.50
2014,12,09,11,10,13.50
2014,12,09,11,11,13.50
2014,12,09,11,12,13.50
2014,12,09,11,13,13.50
2014,12,09,11,14,13.50
2014,12,09,11,15,13.50
2014,12,09,11,16,13.50
2014,12,09,11,17,13.50
2014,12,09,11,18,13.50
2014,12,09,11,19,13.40
2014,12,09,11,20,13.50
2014,12,09,11,21,13.50
2014,12,09,11,22,13.50
2014,12,09,11,23,13.50
2014,12,09,11,24,13.40
2014,12,09,11,25,13.40
2014,12,09,11,26,13.40
2014,12,09,11,27,13.40
2014,12,09,11,28,13.40
2014,12,09,11,29,13.40
2014,12,09,11,30,13.40
2014,12,09,11,31,13.40
2014,12,09,11,32,13.40
2014,12,09,11,33,13.40
2014,12,09,11,34,13.40
2014,12,09,11,35,13.40
2014,12,09,11,36,13.40
2014,12,09,11,37,13.40
2014,12,09,11,38,13.50
2014,12,09,11,39,13.60
2014,12,09,11,40,13.60
2014,12,09,11,41,13.60
2014,12,09,11,42,13.60
2014,12,09,11,43,13.60
2014,12,09,11,44,13.60
2014,12,09,11,45,13.60
2014,12,09,11,46,13.60
2014,12,09,11,47,13.60
2014,12,09,11,48,13.60
2014,12,09,11,49,13.50
2014,12,09,11,50,13.50
2014,12,09,11,51,13.50
2014,12,09,11,52,13.50
2014,12,09,11,53,13.50
2014,12,09,11,54,13.50
2014,12,09,11,55,13.50
2014,12,09,11,56,13.50
2014,12,09,11,57,13.50
2014,12,09,11,58,13.50
2014,12,09,11,59,13.60
2014,12,09,12,00,13.70
2014,12,09,12,01,13.70
2014,12,09,12,02,13.70
2014,12,09,12,03,13.60
2014,12,09,12,04,13.60
2014,12,09,12,05,13.70
2014,12,09,12,06,13.80
2014,12,09,12,07,13.90
2014,12,09,12,08,13.90
2014,12,09,12,09,13.90
2014,12,09,12,10,13.90
2014,12,09,12,11,13.90
2014,12,09,12,12,13.90
2014,12,09,12,13,13.90
2014,12,09,12,14,13.90
2014,12,09,12,15,13.80
2014,12,09,12,16,13.80
2014,12,09,12,17,13.60
2014,12,09,12,18,13.60
2014,12,09,12,19,13.60
2014,12,09,12,20,13.60
2014,12,09,12,21,13.60
2014,12,09,12,22,13.60
2014,12,09,12,23,13.60
2014,12,09,12,24,13.70
2014,12,09,12,25,13.80
2014,12,09,12,26,13.80
2014,12,09,12,27,13.70
2014,12,09,12,28,13.60
2014,12,09,12,29,13.60
2014,12,09,12,30,13.60
2014,12,09,12,31,13.50
2014,12,09,12,32,13.60
2014,12,09,12,33,13.50
2014,12,09,12,34,13.50
2014,12,09,12,35,13.40
2014,12,09,12,36,13.50
2014,12,09,12,37,13.50
2014,12,09,12,38,13.50
2014,12,09,12,39,13.50
2014,12,09,12,40,13.60
2014,12,09,12,41,13.60
2014,12,09,12,42,13.60
2014,12,09,12,43,13.70
2014,12,09,12,44,13.70
2014,12,09,12,45,13.60
2014,12,09,12,46,13.60
2014,12,09,12,47,13.60
2014,12,09,12,48,13.70
2014,12,09,12,49,13.70
2014,12,09,12,50,13.60
2014,12,09,12,51,13.60
2014,12,09,12,52,13.60
2014,12,09,12,53,13.50
2014,12,09,12,54,13.50
2014,12,09,12,55,13.60
2014,12,09,12,56,13.70
2014,12,09,12,57,13.70
2014,12,09,12,58,13.60
2014,12,09,12,59,13.60
2014,12,09,13,00,13.60
2014,12,09,13,01,13.60
2014,12,09,13,02,13.50
2014,12,09,13,03,13.40
2014,12,09,13,04,13.40
2014,12,09,13,05,13.30
2014,12,09,13,06,13.30
2014,12,09,13,07,13.40
2014,12,09,13,08,13.40
2014,12,09,13,09,13.50
2014,12,09,13,10,13.50
2014,12,09,13,11,13.50
2014,12,09,13,12,13.40
2014,12,09,13,13,13.40
2014,12,09,13,14,13.40
2014,12,09,13,15,13.30
2014,12,09,13,16,13.30
2014,12,09,13,17,13.30
2014,12,09,13,18,13.20
2014,12,09,13,19,13.20
2014,12,09,13,20,13.20
2014,12,09,13,21,13.20
2014,12,09,13,22,13.20
2014,12,09,13,23,13.10
2014,12,09,13,24,13.10
2014,12,09,13,25,13.10
2014,12,09,13,26,12.90
2014,12,09,13,27,13.00
2014,12,09,13,28,13.10
2014,12,09,13,29,13.10
2014,12,09,13,30,13.00
2014,12,09,13,31,13.00
2014,12,09,13,32,12.90
2014,12,09,13,33,12.90
2014,12,09,13,34,12.90
2014,12,09,13,35,12.80
2014,12,09,13,36,12.80
2014,12,09,13,37,12.80
2014,12,09,13,38,12.80
2014,12,09,13,39,12.70
2014,12,09,13,40,12.70
2014,12,09,13,41,12.70
2014,12,09,13,42,12.70
2014,12,09,13,43,12.60
2014,12,09,13,44,12.60
2014,12,09,13,45,12.60
2014,12,09,13,46,12.50
2014,12,09,13,47,12.50
2014,12,09,13,48,12.40
2014,12,09,13,49,12.40
2014,12,09,13,50,12.40
2014,12,09,13,51,12.40
2014,12,09,13,52,12.50
2014,12,09,13,53,12.50
2014,12,09,13,54,12.50
2014,12,09,13,55,12.50
2014,12,09,13,56,12.40
2014,12,09,13,57,12.40
2014,12,09,13,58,12.40
2014,12,09,13,59,12.40
2014,12,09,14,00,12.40
2014,12,09,14,01,12.30
2014,12,09,14,02,12.30
2014,12,09,14,03,12.30
2014,12,09,14,04,12.40
2014,12,09,14,05,12.30
2014,12,09,14,06,12.30
2014,12,09,14,07,12.30
2014,12,09,14,08,12.40
2014,12,09,14,09,12.50
2014,12,09,14,10,12.60
2014,12,09,14,11,12.70
2014,12,09,14,12,12.80
2014,12,09,14,13,12.90
2014,12,09,14,14,12.90
2014,12,09,14,15,13.10
2014,12,09,14,16,13.10
2014,12,09,14,17,13.20
2014,12,09,14,18,13.20
2014,12,09,14,19,13.20
2014,12,09,14,20,13.20
2014,12,09,14,21,13.20
2014,12,09,14,22,13.10
2014,12,09,14,23,13.10
2014,12,09,14,24,13.10
2014,12,09,14,25,13.10
2014,12,09,14,26,13.10
2014,12,09,14,27,13.10
2014,12,09,14,28,13.20
2014,12,09,14,29,13.20
2014,12,09,14,30,13.30
2014,12,09,14,31,13.30
2014,12,09,14,32,13.30
2014,12,09,14,33,13.30
2014,12,09,14,34,13.20
2014,12,09,14,35,13.20
2014,12,09,14,36,13.10
2014,12,09,14,37,13.10
2014,12,09,14,38,13.10
2014,12,09,14,39,13.00
2014,12,09,14,40,12.90
2014,12,09,14,41,12.90
2014,12,09,14,42,12.80
2014,12,09,14,43,12.80
2014,12,09,14,44,12.80
2014,12,09,14,45,12.60
2014,12,09,14,46,12.60
2014,12,09,14,47,12.50
2014,12,09,14,48,12.50
2014,12,09,14,49,12.50
2014,12,09,14,50,12.40
2014,12,09,14,51,12.40
2014,12,09,14,52,12.40
2014,12,09,14,53,12.30
2014,12,09,14,54,12.30
2014,12,09,14,55,12.30
2014,12,09,14,56,12.30
2014,12,09,14,57,12.20
2014,12,09,14,58,12.20
2014,12,09,14,59,12.20
2014,12,09,15,00,12.20
2014,12,09,15,01,12.30
2014,12,09,15,02,12.30
2014,12,09,15,03,12.40
2014,12,09,15,04,12.30
2014,12,09,15,05,12.30
2014,12,09,15,06,12.40
2014,12,09,15,07,12.40
2014,12,09,15,08,12.50
2014,12,09,15,09,12.50
2014,12,09,15,10,12.60
2014,12,09,15,11,12.60
2014,12,09,15,12,12.50
2014,12,09,15,13,12.50
2014,12,09,15,14,12.60
2014,12,09,15,15,12.70
2014,12,09,15,16,12.80
2014,12,09,15,17,12.90
2014,12,09,15,18,13.10
2014,12,09,15,19,13.10
2014,12,09,15,20,13.20
2014,12,09,15,21,13.30
2014,12,09,15,22,13.40
2014,12,09,15,23,13.50
2014,12,09,15,24,13.60
2014,12,09,15,25,13.60
2014,12,09,15,26,13.70
2014,12,09,15,27,13.60
2014,12,09,15,28,13.60
2014,12,09,15,29,13.60
2014,12,09,15,30,13.60
2014,12,09,15,31,13.70
2014,12,09,15,32,13.60
2014,12,09,15,33,13.60
2014,12,09,15,34,13.60
2014,12,09,15,35,13.50
2014,12,09,15,36,13.40
2014,12,09,15,37,13.50
2014,12,09,15,38,13.60
2014,12,09,15,39,13.70
2014,12,09,15,40,13.60
2014,12,09,15,41,13.60
2014,12,09,15,42,13.60
2014,12,09,15,43,13.50
2014,12,09,15,44,13.30
2014,12,09,15,45,13.20
2014,12,09,15,46,13.20
2014,12,09,15,47,13.10
2014,12,09,15,48,13.10
2014,12,09,15,49,13.10
2014,12,09,15,50,13.10
2014,12,09,15,51,13.10
2014,12,09,15,52,13.10
2014,12,09,15,53,13.10
2014,12,09,15,54,13.20
2014,12,09,15,55,13.20
2014,12,09,15,56,13.10
2014,12,09,15,57,13.10
2014,12,09,15,58,13.10
2014,12,09,15,59,13.20
2014,12,09,16,00,13.30
2014,12,09,16,01,13.40
2014,12,09,16,02,13.50
2014,12,09,16,03,13.50
2014,12,09,16,04,13.60
2014,12,09,16,05,13.60
2014,12,09,16,06,13.60
2014,12,09,16,07,13.60
2014,12,09,16,08,13.60
2014,12,09,16,09,13.60
2014,12,09,16,10,13.60
2014,12,09,16,11,13.60
2014,12,09,16,12,13.60
2014,12,09,16,13,13.60
2014,12,09,16,14,13.50
2014,12,09,16,15,13.40
2014,12,09,16,16,13.30
2014,12,09,16,17,13.30
2014,12,09,16,18,13.30
2014,12,09,16,19,13.20
2014,12,09,16,20,13.10
2014,12,09,16,21,12.90
2014,12,09,16,22,12.80
2014,12,09,16,23,12.80
2014,12,09,16,24,12.80
2014,12,09,16,25,12.80
2014,12,09,16,26,12.70
2014,12,09,16,27,12.70
2014,12,09,16,28,12.50
2014,12,09,16,29,12.40
2014,12,09,16,30,12.50
2014,12,09,16,31,12.60
2014,12,09,16,32,12.60
2014,12,09,16,33,12.60
2014,12,09,16,34,12.50
2014,12,09,16,35,12.40
2014,12,09,16,36,12.40
2014,12,09,16,37,12.40
2014,12,09,16,38,12.40
2014,12,09,16,39,12.30
2014,12,09,16,40,12.20
2014,12,09,16,41,12.10
2014,12,09,16,42,12.00
2014,12,09,16,43,11.90
2014,12,09,16,44,11.90
2014,12,09,16,45,11.90
2014,12,09,16,46,11.90
2014,12,09,16,47,12.00
2014,12,09,16,48,12.20
2014,12,09,16,49,12.30
2014,12,09,16,50,12.40
2014,12,09,16,51,12.50
2014,12,09,16,52,12.50
2014,12,09,16,53,12.70
2014,12,09,16,54,12.80
2014,12,09,16,55,12.80
2014,12,09,16,56,12.80
2014,12,09,16,57,12.80
2014,12,09,16,58,12.90
2014,12,09,16,59,13.00
2014,12,09,17,00,13.00
2014,12,09,17,01,13.20
2014,12,09,17,02,13.30
2014,12,09,17,03,13.40
2014,12,09,17,04,13.50
2014,12,09,17,05,13.50
2014,12,09,17,06,13.50
2014,12,09,17,07,13.40
2014,12,09,17,08,13.40
2014,12,09,17,09,13.40
2014,12,09,17,10,13.50
2014,12,09,17,11,13.50
2014,12,09,17,12,13.50
2014,12,09,17,13,13.40
2014,12,09,17,14,13.40
2014,12,09,17,15,13.30
2014,12,09,17,16,13.30
2014,12,09,17,17,13.30
2014,12,09,17,18,13.30
2014,12,09,17,19,13.20
2014,12,09,17,20,13.20
2014,12,09,17,21,13.10
2014,12,09,17,22,13.00
2014,12,09,17,23,13.00
2014,12,09,17,24,13.10
2014,12,09,17,25,13.20
2014,12,09,17,26,13.30
2014,12,09,17,27,13.40
2014,12,09,17,28,13.50
2014,12,09,17,29,13.60
2014,12,09,17,30,13.60
2014,12,09,17,31,13.50
2014,12,09,17,32,13.50
2014,12,09,17,33,13.40
2014,12,09,17,34,13.40
2014,12,09,17,35,13.40
2014,12,09,17,36,13.40
2014,12,09,17,37,13.50
2014,12,09,17,38,13.60
2014,12,09,17,39,13.70
2014,12,09,17,40,13.80
2014,12,09,17,41,13.80
2014,12,09,17,42,13.80
2014,12,09,17,43,13.80
2014,12,09,17,44,13.80
2014,12,09,17,45,13.80
2014,12,09,17,46,13.80
2014,12,09,17,47,13.80
2014,12,09,17,48,13.90
2014,12,09,17,49,13.90
2014,12,09,17,50,13.90
2014,12,09,17,51,13.80
2014,12,09,17,52,13.80
2014,12,09,17,53,13.80
2014,12,09,17,54,13.80
2014,12,09,17,55,13.80
2014,12,09,17,56,13.90
2014,12,09,17,57,13.90
2014,12,09,17,58,14.00
2014,12,09,17,59,14.00
2014,12,09,18,00,14.00
2014,12,09,18,01,14.00
2014,12,09,18,02,13.90
2014,12,09,18,03,14.00
2014,12,09,18,04,14.00
2014,12,09,18,05,14.10
2014,12,09,18,06,14.10
2014,12,09,18,07,14.00
2014,12,09,18,08,14.00
2014,12,09,18,09,14.00
2014,12,09,18,10,14.00
2014,12,09,18,11,13.90
2014,12,09,18,12,13.90
2014,12,09,18,13,13.90
2014,12,09,18,14,14.00
2014,12,09,18,15,13.90
2014,12,09,18,16,13.90
2014,12,09,18,17,13.90
2014,12,09,18,18,13.80
2014,12,09,18,19,13.70
2014,12,09,18,20,13.70
2014,12,09,18,21,13.80
2014,12,09,18,22,13.80
2014,12,09,18,23,13.80
2014,12,09,18,24,13.80
2014,12,09,18,25,13.80
2014,12,09,18,26,13.80
2014,12,09,18,27,13.80
2014,12,09,18,28,13.80
2014,12,09,18,29,13.80
2014,12,09,18,30,13.90
2014,12,09,18,31,13.90
2014,12,09,18,32,13.80
2014,12,09,18,33,13.80
2014,12,09,18,34,13.70
2014,12,09,18,35,13.60
2014,12,09,18,36,13.40
2014,12,09,18,37,13.20
2014,12,09,18,38,13.10
2014,12,09,18,39,13.00
2014,12,09,18,40,12.90
2014,12,09,18,41,12.70
2014,12,09,18,42,12.60
2014,12,09,18,43,12.50
2014,12,09,18,44,12.40
2014,12,09,18,45,12.30
2014,12,09,18,46,12.20
2014,12,09,18,47,12.10
2014,12,09,18,48,12.10
2014,12,09,18,49,12.10
2014,12,09,18,50,12.00
2014,12,09,18,51,11.90
2014,12,09,18,52,11.90
2014,12,09,18,53,11.80
2014,12,09,18,54,11.80
2014,12,09,18,55,11.80
2014,12,09,18,56,11.80
2014,12,09,18,57,11.70
2014,12,09,18,58,11.70
2014,12,09,18,59,11.70
2014,12,09,19,00,11.60
2014,12,09,19,01,11.60
2014,12,09,19,02,11.60
2014,12,09,19,03,11.50
2014,12,09,19,04,11.50
2014,12,09,19,05,11.40
2014,12,09,19,06,11.40
2014,12,09,19,07,11.40
2014,12,09,19,08,11.40
2014,12,09,19,09,11.30
2014,12,09,19,10,11.30
2014,12,09,19,11,11.30
2014,12,09,19,12,11.30
2014,12,09,19,13,11.30
2014,12,09,19,14,11.30
2014,12,09,19,15,11.30
2014,12,09,19,16,11.30
2014,12,09,19,17,11.30
2014,12,09,19,18,11.30
2014,12,09,19,19,11.30
2014,12,09,19,20,11.30
2014,12,09,19,21,11.30
2014,12,09,19,22,11.20
2014,12,09,19,23,11.20
2014,12,09,19,24,11.20
2014,12,09,19,25,11.10
2014,12,09,19,26,11.10
2014,12,09,19,27,11.00
2014,12,09,19,28,11.00
2014,12,09,19,29,10.90
2014,12,09,19,30,10.90
2014,12,09,19,31,10.80
2014,12,09,19,32,10.80
2014,12,09,19,33,10.80
2014,12,09,19,34,10.80
2014,12,09,19,35,10.80
2014,12,09,19,36,10.80
2014,12,09,19,37,10.80
2014,12,09,19,38,10.80
2014,12,09,19,39,10.70
2014,12,09,19,40,10.70
2014,12,09,19,41,10.70
2014,12,09,19,42,10.60
2014,12,09,19,43,10.60
2014,12,09,19,44,10.50
2014,12,09,19,45,10.50
2014,12,09,19,46,10.50
2014,12,09,19,47,10.50
2014,12,09,19,48,10.40
2014,12,09,19,49,10.40